Terug naar catalogus

STARLINK-4436

ActiefCommunicatieSSO
NORAD 53479·PAYLOAD·🇺🇸 United States

Gelanceerd Aug 12, 2022 vanaf Vandenberg Space Force Base

Loading…

Volgende Passages (komende 24 uur)

TLE

VersSource: CelesTrak SupGP

Epoch: Sep 15, 2026, 01:18 UTC

1 53479C 22099Q   26258.05465278 -.00041506  00000+0 -12898-2 0  2585
2 53479  97.2863  15.7387 0001051  97.9383 108.4470 15.33426383    15

Volg STARLINK-4436 in realtime met AllMySat

Download on the App Store